User: anonymous   Login
Location: Unspecified
(0.0000°N, 0.0000°E)
Time: 09:13:09
(UTC+00:00)
Language:

CERISE - Orbit

View from above orbital plane
View from above orbital plane
View from above satellite
View from above satellite

Ground track
Ground track

The orbit data is extracted from the following two-line orbital elements,

1 23606U 95033B   17086.92222898 +.00000690 +00000-0 +70464-4 0  9991
2 23606 098.2485 023.8284 0004293 205.1583 154.9427 14.94139625174271
Epoch (UTC): 27 March 2017 22:08:00
Eccentricity: 0.0004293
inclination: 98.2485°
perigee height: 582 km
apogee height: 588 km
right ascension of ascending node: 23.8284°
argument of perigee: 205.1583°
revolutions per day: 14.94139625
mean anomaly at epoch: 154.9427°
orbit number at epoch: 17427

The dashed part of the orbit path shows where the satellite is in the earth's shadow,  

DLR